Weather in Rakovka

Russia / Primorsky Krai     43°48′29″N   132°09′57″E
temp.,
°C
wind,
m/s
gust,
m/s
humid.,
%
clouds,
%
prec.,
mm/h
press.,
hPa
HPBL,
m
17 may, tue
tue1701:00+7sse119029 0.0 100710
04:00+6sse21924 0.0 100813
07:00+7sse21890 0.0 101034
10:00+15ssw23480 0.0 1010562
13:00+20wsw23250 0.0 10091977
16:00+20ssw54300 0.0 10081864
19:00+15s5124444 0.0 1008769
22:00+12s616554 0.0 1011641
18 may, wed
wed1801:00+9se3127232 0.0 1012348
04:00+9s4147087 0.0 1012409
07:00+9s257230 0.0 1012131
10:00+17ssw34486 0.0 1012722
13:00+19wnw234696 0.0 1012977
16:00+13ssw2493100 2.6 1013116
19:00+14ese1285100 2.6 1012136
22:00+11sse2290100 2.6 101415
19 may, thu
thu1901:00+10se2290100 0.0 101314
04:00+9sse22942 0.0 101322
07:00+10sse228723 0.0 101357
10:00+18ssw35555 0.0 1011680
13:00+21ssw5542100 0.0 10101261
16:00+21s584267 0.0 1007803
19:00+15s51467100 0.2 1006529
22:00+12s41278100 0.4 1008373
20 may, fri
fri2001:00+10s3792100 0.2 1007168
04:00+10s22971 0.4 100728
07:00+11ne11912 0.0 100849
10:00+17nnw36532 0.0 10091215
13:00+20nnw36364 0.0 10081617
16:00+24n123349 0.0 10061111
19:00+20ssw484726 0.0 1005483
22:00+15s5155386 0.0 1006501
21 may, sat
sat2101:00+15s5145478 0.0 1005443
04:00+12sse356876 0.0 1004107
07:00+13sse4869100 0.1 1004184
10:00+16sse3664100 0.3 1004207
13:00+16s3487100 1.1 1004276
16:00+21s58564 1.1 1002834
19:00+12e4897100 9.9 1004218
22:00+11ne229866 10.4 100537